Torna al catalogo

CHIMERA-1

LostScienzaHEO
NORAD 63100·PAYLOAD·🇺🇸 United States

Lanciato Feb 27, 2025 da Cape Canaveral Space Force Station

Loading…

Prossimi Passaggi (prossime 24 ore)

TLE

ObsoletoSource: Space-Track

Epoca: Feb 27, 2025, 00:53 UTC

1 63100U 25038B   25058.03746186 -.00007054  00000-0  00000+0 0  9999
2 63100  28.5200 357.2438 9653600 216.4100   0.0142  0.10463308    06

Traccia CHIMERA-1 in tempo reale con AllMySat

Download on the App Store